Location: Unspecified
(33.3110°N, 0.0000°E)
Time: 10:49:35
(UTC+00:00)

N. Korean satellite - Visible Passes

Search period start: 14 October 2019 00:00
Search period end: 24 October 2019 00:00
Orbit: 455 x 508 km, 97.2° (Epoch: 13 October)

Date Brightness Start Highest point End Pass type
(mag) Time Alt. Az. Time Alt. Az. Time Alt. Az.
14 Oct 9.7 17:56:09 10° SSW 17:58:46 21° W 18:01:24 10° NW visible
15 Oct 8.5 05:25:35 10° NNE 05:28:54 35° E 05:32:15 10° SSE visible
16 Oct 10.0 05:01:13 10° NE 05:03:33 16° E 05:05:52 10° SE visible
17 Oct 10.4 18:15:05 10° WSW 18:16:22 12° W 18:17:39 10° WNW visible
18 Oct 9.1 17:48:02 10° SSW 17:50:57 26° W 17:53:52 10° NW visible
19 Oct 9.0 05:17:57 10° NE 05:21:07 28° E 05:24:18 10° SSE visible
20 Oct 10.2 04:53:58 10° ENE 04:55:44 13° E 04:57:29 10° ESE visible
21 Oct 10.0 18:06:28 10° SW 18:08:29 15° W 18:10:32 10° WNW visible
22 Oct 7.7 05:35:04 10° NNE 05:38:38 50° E 05:42:13 10° S visible
22 Oct 8.6 17:39:58 10° SSW 17:43:05 34° W 17:46:14 10° NNW visible
23 Oct 9.5 05:10:22 10° NE 05:13:17 22° E 05:16:13 10° SSE visible
